Back to catalog

COSMOS 970 DEB

AliveLEO
NORAD 12863·DEBRIS·🇷🇺 Russia

Launched Dec 21, 1977 from Baikonur Cosmodrome

Loading…

Next Passes (next 24 hours)

TLE

FreshSource: Space-Track

Epoch: Sep 14, 2026, 10:47 UTC

1 12863U 77121AR  26257.44954300  .00000384  00000-0  53109-3 0  9995
2 12863  65.7807 255.6820 0055241  27.7481 124.3772 13.68877373321150

Track COSMOS 970 DEB in real time with AllMySat

Download on the App Store